Location: Newark
(41.0400°S, 62.7845°W)
Time: 22:06:59
(UTC+00:00)

Transit 2A Rocket - All Passes

Search period start: 06 December 2021 00:00
Search period end: 16 December 2021 00:00
Orbit: 584 x 918 km, 66.7° (Epoch: 06 December)

Date Brightness Start Highest point End Pass type
(mag) Time Alt. Az. Time Alt. Az. Time Alt. Az.
06 Dec - 00:55:54 10° WSW 00:58:11 14° SW 01:00:26 10° SSW visible
06 Dec - 07:53:23 10° SSW 07:57:45 56° ESE 08:02:22 10° NE visible
06 Dec - 09:37:17 10° WSW 09:39:51 15° WNW 09:42:29 10° NW daylight
06 Dec - 22:28:04 10° N 22:32:33 42° ENE 22:36:47 10° SE daylight
07 Dec - 00:11:37 10° W 00:15:12 22° SW 00:18:41 10° S visible
07 Dec - 07:11:00 10° S 07:14:59 31° SE 07:19:08 10° ENE visible
07 Dec - 08:53:35 10° SW 08:57:24 28° WNW 09:01:25 10° N daylight
07 Dec - 21:46:21 10° NNE 21:50:03 23° ENE 21:53:35 10° ESE daylight
07 Dec - 23:28:02 10° WNW 23:32:22 37° SW 23:36:29 10° SSE daylight
08 Dec - 06:28:54 10° S 06:32:06 19° SE 06:35:23 10° E visible
08 Dec - 08:10:31 10° SW 08:14:52 52° WNW 08:19:29 10° N daylight
08 Dec - 21:05:48 10° NE 21:07:37 12° ENE 21:09:23 10° E daylight
08 Dec - 22:44:57 10° NW 22:49:38 68° WSW 22:54:03 10° SSE daylight
09 Dec - 05:47:28 10° SSE 05:49:04 12° SE 05:50:43 10° ESE visible
09 Dec - 07:27:46 10° SSW 07:32:14 84° ESE 07:37:00 10° NNE visible
09 Dec - 22:02:19 10° NNW 22:06:59 64° ENE 22:11:23 10° SE daylight
09 Dec - 23:47:03 10° W 23:49:52 16° SW 23:52:38 10° S daylight
10 Dec - 06:45:15 10° SSW 06:49:32 45° SE 06:54:04 10° NE visible
10 Dec - 08:28:34 10° WSW 08:31:46 19° WNW 08:35:06 10° NNW daylight
10 Dec - 21:20:12 10° N 21:24:26 33° ENE 21:28:26 10° SE daylight
10 Dec - 23:03:04 10° WNW 23:06:57 26° SW 23:10:41 10° S daylight
11 Dec - 06:02:58 10° S 06:06:44 26° SE 06:10:40 10° ENE visible
11 Dec - 07:45:11 10° SW 07:49:17 35° WNW 07:53:37 10° N visible
11 Dec - 20:38:46 10° NNE 20:41:56 18° ENE 20:45:00 10° ESE daylight
11 Dec - 22:19:41 10° NW 22:24:09 46° SW 22:28:23 10° SSE daylight
12 Dec - 05:21:01 10° S 05:23:48 16° SE 05:26:41 10° E visible
12 Dec - 07:02:15 10° SW 07:06:43 66° WNW 07:11:28 10° NNE visible
12 Dec - 21:36:45 10° NNW 21:41:27 85° WSW 21:45:52 10° SSE daylight
12 Dec - 23:23:00 10° WSW 23:24:36 12° SW 23:26:11 10° SSW daylight
13 Dec - 06:19:35 10° SSW 06:24:03 67° ESE 06:28:49 10° NE visible
13 Dec - 08:04:05 10° W 08:06:06 13° WNW 08:08:10 10° NW daylight
13 Dec - 20:54:19 10° N 20:58:50 50° ENE 21:03:06 10° SE daylight
13 Dec - 22:38:20 10° W 22:41:34 19° SW 22:44:45 10° S daylight
14 Dec - 05:37:09 10° SSW 05:41:19 37° SE 05:45:43 10° ENE visible
14 Dec - 07:20:01 10° WSW 07:23:40 24° WNW 07:27:30 10° NNW visible
14 Dec - 20:12:24 10° NNE 20:16:17 27° ENE 20:20:01 10° SE daylight
14 Dec - 21:54:36 10° WNW 21:58:41 32° SW 22:02:39 10° S daylight
15 Dec - 04:54:57 10° S 04:58:29 22° SE 05:02:08 10° E visible
15 Dec - 06:36:51 10° SW 06:41:08 44° WNW 06:45:44 10° N visible
15 Dec - 19:31:24 10° NE 19:33:50 14° ENE 19:36:14 10° ESE daylight
15 Dec - 21:11:23 10° NW 21:15:56 57° WSW 21:20:15 10° SSE daylight
